Location: Fort Worth, Tx
(32.7431°N, 97.3695°W)
Time: 10:13:50
(UTC-04:00)

A-11 Canister half - Pass Details

Date: 17 August 2024
Orbit: 1524 x 1684 km, 47.3° (Epoch: 13 September)

Event Time Altitude Azimuth Distance (km) Brightness Sun altitude
Rises 01:22:14 0° 265° (W) 4,890 11.8 -41.0°
Reaches altitude 10° 01:25:38 10° 272° (W) 3,918 11.3 -41.2°
Maximum altitude 01:35:05 43° 341° (NNW) 2,231 10.0 -41.9°
Drops below altitude 10° 01:44:38 10° 51° (NE) 3,942 11.3 -42.6°
Sets 01:48:05 0° 58° (ENE) 4,922 11.8 -42.7°
